Miscellaneous Local Product
Issued by NWS North Platte, NE

Home | Current Version | Previous Version | Text Only | Print | Product List | Glossary On
Versions: 1 2 3 4 5 6 7 8 9 10 11 12 13 14 15 16 17 18 19 20 21 22 23 24 25 26 27 28 29 30 31 32 33 34 35 36 37 38 39 40 41 42 43 44 45 46 47 48 49 50
000
AXUS43 KLBF 282310
MISLBF


WESTERN AND NORTH CENTRAL NEBRASKA HOURLY WEATHER ROUNDUP
NATIONAL WEATHER SERVICE NORTH PLATTE NE
600 PM CDT SAT MAR 28 2015

***STATIONS NOT REPORTING VARIABLES SUCH AS SKY/WEATHER OR
PRESSURE ARE PROVIDED BY THE NEBRASKA DEPARTMENT OF
ROADS...RAWS...AND APRS NETWORKS...AND ARE NOT UNDER
NATIONAL WEATHER SERVICE QUALITY CONTROL***

...OBSERVATIONS IN AND NEAR THE EASTERN PANHANDLE OF NEBRASKA...

CITY           SKY/WX    TMP DP  RH WIND       PRES   REMARKS
PINE RIDGE     SUNNY     81  21  11 W21G31    29.67F
CHADRON        SUNNY     83  27  13 W18G29    29.67F
ALLIANCE       SUNNY     80  32  17 W17G23    29.76F
SIDNEY         SUNNY     78  24  13 W18G24    29.83F
CRESCENT LAKE    N/A     80  19  10 W16G28      N/A
BIG SPRINGS      N/A     83  29  14 SW7         N/A
$$

...OBSERVATIONS IN NORTH CENTRAL NEBRASKA...

CITY           SKY/WX    TMP DP  RH WIND       PRES   REMARKS
VALENTINE      SUNNY     78  32  18 S23G31    29.71F
THEDFORD       SUNNY     78  36  22 S20G25    29.78F
AINSWORTH      SUNNY     71  35  26 S26       29.77F
O`NEILL        SUNNY     62  34  34 S18G28    29.87F
ORD            SUNNY     64  32  30 S18G24    29.88F
BROKEN BOW     SUNNY     70  36  28 S21       29.86F
SPRINGVIEW       N/A     70  39  31 S15G25      N/A
SARGENT          N/A     66  36  33 S7G14       N/A
COMSTOCK         N/A     72  36  27 S20         N/A
EWING            N/A     58  38  47 S12G20      N/A
$$

...OBSERVATIONS IN SOUTHWEST NEBRASKA AND FAR NORTHEAST COLORADO...

CITY           SKY/WX    TMP DP  RH WIND       PRES   REMARKS
WRAY           FAIR      83  21  10 SW13G20   29.85F
IMPERIAL         N/A     82  27  13 SW15      29.80F
OGALLALA       SUNNY     82  31  15 S12G17    29.77F
NORTH PLATTE   SUNNY     77  34  21 S18G24    29.80F
MCCOOK         SUNNY     79  34  19 S18G26    29.84F
LEXINGTON      SUNNY     71  35  27 S17G24    29.88F
PAXTON           N/A     80  37  21 S16         N/A
BRADY            N/A     74  38  26 CALM        N/A
GOTHENBURG       N/A     72  34  25 S14         N/A
CALLAWAY         N/A     71  40  32 S20         N/A
$$

...NORTH PLATTE AREA...

CITY           SKY/WX    TMP DP  RH WIND       PRES   REMARKS
AIRPORT        SUNNY     77  34  21 S18G24    29.80F
DOWNTOWN         N/A     77  36  23 S14G22      N/A
$$

...SOME WEATHER OBSERVATIONS FROM AROUND THE REGION...

CITY           SKY/WX    TMP DP  RH WIND       PRES   REMARKS
DENVER         MOSUNNY   76  20  12 W24G31    29.92F
LARAMIE        MOSUNNY   63  20  19 W22G37    30.00F
CHEYENNE       MOSUNNY   70  19  14 W20G32    29.94F
SCOTTSBLUFF    SUNNY     82  25  12 W25G32    29.77F
RAPID CITY     SUNNY     82  23  11 W18G26    29.58F
PIERRE         SUNNY     73  36  25 SE21G29   29.64F
WINNER         FAIR      73  34  23 S25G32    29.72F
SIOUX FALLS    SUNNY     53  27  36 S21G29    29.93F
OMAHA          SUNNY     54  30  40 S20       30.04F
GRAND ISLAND   SUNNY     62  34  35 SE18G25   29.95F
KANSAS CITY    SUNNY     52  31  44 SE10      30.11S
WICHITA        SUNNY     72  38  29 E13       29.97S
HAYS           SUNNY     72  39  30 SE18      29.94F
LIBERAL        SUNNY     82  34  17 SE5       29.94F
GOODLAND       SUNNY     80  20  10 SW14      29.88F
$$



USA.gov is the U.S. government's official web portal to all federal, state and local government web resources and services.